Weather History for Moses Lake, WA

Change the Weather History Date:

Tuesday, June 3, 2014

  Actual Average Record
Temperature  
Mean Temperature 73 °F 64 °F  
Max Temperature 88 °F 77 °F 100 °F (2007)
Min Temperature 57 °F 50 °F 43 °F (1985)
Degree Days  
Heating Degree Days 0 3  
Month to date heating degree days 0 9  
Since 1 June heating degree days 0 9  
Since 1 July heating degree days 5627 5836  
Cooling Degree Days 8 2  
Month to date cooling degree days 21 6  
Year to date cooling degree days 56 31  
Since 1 June cooling degree days 21 6  
Growing Degree Days 22 (Base 50)    
Moisture  
Dew Point 41 °F    
Average Humidity 35    
Maximum Humidity 57    
Minimum Humidity 12    
Precipitation  
Precipitation 0.00 in 0.03 in 0.08 in (2008)
Month to date precipitation 0.00 0.11  
Year to date precipitation 2.78 4.13  
Sea Level Pressure  
Sea Level Pressure 29.79 in    
Wind  
Wind Speed 10 mph (NW)    
Max Wind Speed 23 mph    
Max Gust Speed 26 mph    
Visibility 10 miles    
Events      
T = Trace of Precipitation, MM = Missing Value Source: NWS Daily Summary

Daily Weather History Graph

Daily Weather History Graph

Search for Another Location

Airport:

Trip Planner

Search our weather history database for the weather conditions in past years. The results will help you decide how hot, cold, wet, or windy it might be!

Date:

Astronomy

Jun. 03, 2014 Rise Set
Actual Time 5:04 AM PDT 8:47 PM PDT
Civil Twilight 4:25 AM PDT 9:26 PM PDT
Nautical Twilight 3:32 AM PDT 10:19 PM PDT
Astronomical Twilight 2:18 AM PDT 11:34 PM PDT
Moon 10:46 AM PDT (6/3) 12:04 AM PDT (6/3)
Length of Visible Light 17h 01m
Length of Day
15h 43m
Waxing Crescent, 31% of the Moon is Illuminated
Jun 3
Waxing Crescent
Jun 5
First Quarter
Jun 12
Full
Jun 19
Last Quarter
Jun 27
New

Hourly Weather History & Observations

Time (PDT) Temp. Dew Point Humidity Pressure Visibility Wind Dir Wind Speed Gust Speed Precip Events Conditions
12:52 AM 72.0 °F 41.0 °F 33% 29.72 in 10.0 mi NNE 10.4 mph - N/A   Clear
1:52 AM 69.1 °F 42.1 °F 38% 29.71 in 10.0 mi North 12.7 mph - N/A   Mostly Cloudy
2:52 AM 63.0 °F 43.0 °F 48% 29.73 in 10.0 mi North 10.4 mph - N/A   Clear
3:52 AM 61.0 °F 43.0 °F 52% 29.75 in 10.0 mi Calm Calm - N/A   Clear
4:52 AM 57.9 °F 43.0 °F 58% 29.75 in 10.0 mi NW 5.8 mph - N/A   Clear
5:52 AM 59.0 °F 43.0 °F 55% 29.77 in 10.0 mi NNW 5.8 mph - N/A   Clear
6:52 AM 64.9 °F 44.1 °F 47% 29.78 in 10.0 mi North 10.4 mph - N/A   Mostly Cloudy
7:52 AM 69.1 °F 45.0 °F 42% 29.79 in 10.0 mi North 5.8 mph - N/A   Mostly Cloudy
8:52 AM 72.0 °F 42.1 °F 34% 29.81 in 10.0 mi North 5.8 mph - N/A   Scattered Clouds
9:52 AM 75.0 °F 43.0 °F 32% 29.81 in 10.0 mi Variable 4.6 mph - N/A   Clear
10:52 AM 78.1 °F 43.0 °F 29% 29.81 in 10.0 mi ENE 4.6 mph - N/A   Clear
11:52 AM 80.1 °F 43.0 °F 27% 29.81 in 10.0 mi Variable 4.6 mph - N/A   Clear
12:52 PM 82.0 °F 45.0 °F 27% 29.80 in 10.0 mi SSW 10.4 mph - N/A   Clear
1:52 PM 84.9 °F 44.1 °F 24% 29.79 in 10.0 mi SW 12.7 mph 17.3 mph N/A   Clear
2:52 PM 86.0 °F 37.9 °F 18% 29.78 in 10.0 mi WSW 13.8 mph 21.9 mph N/A   Clear
3:52 PM 86.0 °F 34.0 °F 16% 29.77 in 10.0 mi SW 15.0 mph 21.9 mph N/A   Clear
4:52 PM 87.1 °F 28.0 °F 12% 29.76 in 10.0 mi WSW 17.3 mph 20.7 mph N/A   Clear
5:52 PM 84.9 °F 33.1 °F 16% 29.76 in 10.0 mi WSW 6.9 mph - N/A   Clear
6:52 PM 84.0 °F 33.1 °F 16% 29.76 in 10.0 mi West 20.7 mph - N/A   Clear
7:52 PM 80.1 °F 37.0 °F 21% 29.78 in 10.0 mi WNW 15.0 mph - N/A   Clear
8:52 PM 75.9 °F 37.9 °F 25% 29.81 in 10.0 mi NNW 13.8 mph - N/A   Clear
9:52 PM 70.0 °F 46.0 °F 42% 29.86 in 10.0 mi NNE 10.4 mph - N/A   Clear
10:52 PM 68.0 °F 46.4 °F 46% 29.91 in 10.0 mi North 9.2 mph 17.3 mph N/A   Clear
11:52 PM 64.4 °F 48.2 °F 56% 29.93 in 10.0 mi NNW 8.1 mph - N/A   Clear